Back to catalog

H-2A DEB

AliveSSO
NORAD 43069·DEBRIS·🇯🇵 Japan

Launched Dec 23, 2017 from Tanegashima Space Center

Loading…

Next Passes (next 24 hours)

TLE

FreshSource: Space-Track

Epoch: Sep 14, 2026, 03:55 UTC

1 43069U 17082E   26257.16328036  .00002736  00000-0  60214-3 0  9995
2 43069  98.2445 323.8326 0022307 211.6593 148.3266 14.58119664459704

Track H-2A DEB in real time with AllMySat

Download on the App Store